S-NET A (43188 NORAD) Tracking and Keplerian Element Data

This shows tracking and keplerian element data for the satellite.

Feedback or suggestion? Click here.




ElementValue
Catalog43188
NameS-NET A
Epoch Orbit14844
Epoch Day294.79027089
Epoch Year2020
RAAN200.5384
Inclination97.6847
Eccentricity0.0011213
Argument of Perigee157.9723
Mean Anonmoly202.1983
Mean Motion14.96866777
Decay Rate-2.58E-06
L11 43188U 18014J 20294.79027089 -.00000258 00000-0 -17443-4 0 9997
L22 43188 97.6847 200.5384 0011213 157.9723 202.1983 14.96866777148448

Live tracking and technical data element details for S-NET A (NORAD 43188). S-NET A can be tracked NOW for your location showing map with azimuth and elevation plus other details from your city location.

Track the satellite on the map from your city or location and see movement details for azimuth, elevation, latitude, longitude, range, height, and movement on the map or in text.







IsCatalogInMostPopularTable: catalog: 43188, numindb: 509
Update: records affected: 1



GetName: 43188 S-NET A

Hit Count: updated at: Thu, 22 Oct 2020 03:09:59 GMT